Home > Weather > Abbotsford > Past weeks

Flag for Canada Past Weather in Abbotsford, British Columbia, Canada — Yesterday and Last 2 Weeks

Now
63 °F

Passing clouds.


Feels Like: 63 °F
Forecast: 58 / 70 °F
Wind: 2 mph from North

Location: Abbotsford

Current Time: Jul 23, 2016 at 2:27:43 AM

Latest Report: Jul 23, 2016 at 2:00 AM


Visibility: 15 mi

Pressure: 30.24 "Hg

Humidity: 73%

Dew Point: 54 °F

Location of AbbotsfordLocation

Past Weather in Abbotsford — Graph

°F

Abbotsford Temperature Yesterday

Maximum temperature yesterday: 73 °F (at 3:00 PM)
Minimum temperature yesterday: 61 °F (at 3:00 AM)
Average temperature yesterday: 66 °F

High & Low Weather Summary for the Past Weeks

 TemperatureHumidityPressure
High84 °F (Jul 21, 4:00 PM)100% (Jul 8, 1:00 AM)30.25 "Hg (Jul 8, 1:00 AM)
Low54 °F (Jul 15, 1:00 AM)37% (Jul 21, 5:00 PM)29.81 "Hg (Jul 8, 4:52 AM)
Average65 °F75%30.05 "Hg
* Reported Jul 8 1:00 AM — Jul 23 1:00 AM, Abbotsford, Weather by CustomWeather, © 2016

Note: Actual official high and low records may vary slightly from our data, if they occured in-between our weather recording intervals... More about our weather records

Advertising

Abbotsford Weather History for the Previous 24 Hours

Scroll right to see more
 ConditionsComfort  
Time TempWeatherWind HumidityBarometerVisibility
1:00 AM
Sat, Jul 23
63 °FPassing clouds.2 mph73%30.25 "Hg15 mi
12:00 AM63 °FPassing clouds.2 mph73%30.25 "Hg15 mi
11:00 PM
Fri, Jul 22
63 °FPassing clouds.7 mph73%30.24 "Hg15 mi
10:00 PM61 °FPartly cloudy.8 mph77%30.24 "Hg15 mi
9:00 PM64 °FPartly sunny.12 mph68%30.23 "Hg30 mi
8:00 PM66 °FBroken clouds.14 mph64%30.23 "Hg30 mi
7:00 PM68 °FBroken clouds.13 mph56%30.22 "Hg25 mi
6:00 PM70 °FBroken clouds.15 mph57%30.22 "Hg25 mi
5:00 PM72 °FBroken clouds.14 mph57%30.22 "Hg25 mi
4:00 PM73 °FScattered clouds.15 mph53%30.21 "Hg25 mi
3:00 PM73 °FBroken clouds.13 mph50%30.22 "Hg25 mi
2:00 PM72 °FBroken clouds.12 mph50%30.21 "Hg20 mi
1:50 PM72 °FBroken clouds.13 mph50%30.21 "Hg20 mi
1:00 PM72 °FBroken clouds.13 mph57%30.21 "Hg20 mi
12:00 PM68 °FBroken clouds.13 mph60%30.20 "Hg20 mi
11:00 AM68 °FBroken clouds.12 mph64%30.19 "Hg20 mi
10:00 AM64 °FPartly sunny.14 mph73%30.18 "Hg20 mi
9:00 AM63 °FBroken clouds.12 mph77%30.17 "Hg20 mi
8:50 AM63 °FSprinkles. Broken clouds.9 mph77%30.16 "Hg20 mi
8:00 AM64 °FCloudy.10 mph73%30.16 "Hg25 mi
7:00 AM63 °FPartly sunny.8 mph77%30.13 "Hg25 mi
6:00 AM61 °FPartly cloudy.8 mph83%30.11 "Hg25 mi
5:00 AM61 °FPartly cloudy.12 mph83%30.09 "Hg30 mi
4:00 AM61 °FPartly cloudy.8 mph83%30.07 "Hg15 mi
3:00 AM61 °FPassing clouds.No wind83%30.06 "Hg15 mi
2:00 AM63 °FPassing clouds.6 mph83%30.06 "Hg15 mi
Weather by CustomWeather, © 2016

See weather overviewHow to use our weather pages